Voltar ao catálogo

STARLINK-6122

AtivoComunicaçõesVLEO
NORAD 56128·PAYLOAD·🇺🇸 United States

Lançado Mar 29, 2023 de Cape Canaveral Space Force Station

Loading…

Próximas Passagens (próximas 24 horas)

TLE

AtualizadoSource: CelesTrak SupGP

Época: Sep 15, 2026, 01:30 UTC

1 56128C 23046AM  26258.06298611  .00015712  00000+0  56925-3 0  2586
2 56128  43.0012 157.9018 0001164 270.4739 236.2687 15.27562263    13

Acompanhe STARLINK-6122 em tempo real com AllMySat

Download on the App Store